Hourly Weather Rudamina

Today, 26 July, Monday

Time Temperature Precipitation Wind Pressure Humidity
00:00 +20°C° 0 mm 2 mps 749 mmHg 71%
01:00 +19°C° 0 mm 2 mps 749 mmHg 72%
02:00 +19°C° 0 mm 2 mps 749 mmHg 73%
03:00 +19°C° 0 mm 2 mps 749 mmHg 74%
04:00 +18°C° 0 mm 2 mps 749 mmHg 75%
05:00 +18°C° 0 mm 2 mps 749 mmHg 77%
06:00 +19°C° 0 mm 2 mps 749 mmHg 73%
07:00 +21°C° 0 mm 2 mps 749 mmHg 70%
08:00 +22°C° 0 mm 3 mps 750 mmHg 66%
09:00 +24°C° 0 mm 3 mps 750 mmHg 62%
10:00 +26°C° 0 mm 3 mps 750 mmHg 58%
11:00 +27°C° 0 mm 3 mps 750 mmHg 53%
12:00 +28°C° 0 mm 4 mps 750 mmHg 51%
13:00 +28°C° 0 mm 4 mps 749 mmHg 50%
14:00 +29°C° 0 mm 4 mps 749 mmHg 48%
15:00 +28°C° 0 mm 3 mps 749 mmHg 51%
16:00 +28°C° 0 mm 3 mps 749 mmHg 54%
17:00 +27°C° 0 mm 3 mps 749 mmHg 58%
18:00 +26°C° 0 mm 3 mps 749 mmHg 63%
19:00 +24°C° 0 mm 2 mps 748 mmHg 69%
20:00 +23°C° 0 mm 2 mps 748 mmHg 75%
21:00 +21°C° 0 mm 3 mps 748 mmHg 72%
22:00 +21°C° 0 mm 3 mps 748 mmHg 69%
23:00 +21°C° 0 mm 3 mps 748 mmHg 66%

Tomorrow, 27 July, Tuesday

Time Temperature Precipitation Wind Pressure Humidity
00:00 +20°C° 0 mm 3 mps 748 mmHg 67%
01:00 +20°C° 0 mm 3 mps 748 mmHg 68%
02:00 +20°C° 0 mm 4 mps 748 mmHg 68%
03:00 +20°C° 0 mm 4 mps 748 mmHg 71%
04:00 +19°C° 0 mm 4 mps 747 mmHg 73%
05:00 +19°C° 0 mm 4 mps 747 mmHg 76%
06:00 +20°C° 0 mm 4 mps 747 mmHg 75%
07:00 +21°C° 0 mm 5 mps 747 mmHg 74%
08:00 +22°C° 0 mm 5 mps 747 mmHg 74%
09:00 +25°C° 0 mm 5 mps 747 mmHg 68%
10:00 +26°C° 0 mm 6 mps 746 mmHg 62%
11:00 +28°C° 0 mm 6 mps 746 mmHg 57%
12:00 +29°C° 0 mm 6 mps 746 mmHg 54%
13:00 +29°C° 0 mm 6 mps 746 mmHg 52%
14:00 +30°C° 0 mm 5 mps 745 mmHg 49%
15:00 +30°C° 0.2 mm 5 mps 745 mmHg 55%
16:00 +29°C° 0.2 mm 5 mps 744 mmHg 61%
17:00 +28°C° 0.2 mm 4 mps 744 mmHg 66%
18:00 +26°C° 3.6 mm 4 mps 743 mmHg 76%
19:00 +22°C° 3.6 mm 3 mps 743 mmHg 85%
20:00 +20°C° 3.6 mm 2 mps 743 mmHg 95%
21:00 +20°C° 0.7 mm 3 mps 743 mmHg 96%
22:00 +19°C° 0.7 mm 3 mps 743 mmHg 97%
23:00 +19°C° 0.7 mm 3 mps 744 mmHg 97%

Day after tomorrow, 28 July, Wednesday

Time Temperature Precipitation Wind Pressure Humidity
00:00 +19°C° 0 mm 3 mps 744 mmHg 97%
01:00 +18°C° 0 mm 3 mps 744 mmHg 97%
02:00 +17°C° 0 mm 2 mps 744 mmHg 98%
03:00 +17°C° 0 mm 2 mps 744 mmHg 98%
04:00 +17°C° 0 mm 3 mps 744 mmHg 98%
05:00 +17°C° 0 mm 3 mps 744 mmHg 98%
06:00 +19°C° 0 mm 3 mps 744 mmHg 94%
07:00 +20°C° 0 mm 3 mps 744 mmHg 90%
08:00 +21°C° 0 mm 3 mps 745 mmHg 86%
09:00 +24°C° 0 mm 3 mps 745 mmHg 77%
10:00 +25°C° 0 mm 3 mps 745 mmHg 67%
11:00 +27°C° 0 mm 3 mps 745 mmHg 58%
12:00 +28°C° 0.1 mm 4 mps 745 mmHg 55%
13:00 +28°C° 0.1 mm 4 mps 745 mmHg 52%
14:00 +29°C° 0.1 mm 5 mps 744 mmHg 49%
15:00 +28°C° 0.1 mm 4 mps 744 mmHg 53%
16:00 +28°C° 0.1 mm 4 mps 744 mmHg 57%
17:00 +27°C° 0.1 mm 3 mps 744 mmHg 60%
18:00 +26°C° 0 mm 3 mps 744 mmHg 66%
19:00 +25°C° 0 mm 2 mps 744 mmHg 71%
20:00 +24°C° 0 mm 1 mps 744 mmHg 76%
21:00 +23°C° 0 mm 1 mps 744 mmHg 78%
22:00 +22°C° 0 mm 1 mps 743 mmHg 80%
23:00 +21°C° 0 mm 1 mps 743 mmHg 82%

29 July, Thursday

Time Temperature Precipitation Wind Pressure Humidity
00:00 +21°C° 0.1 mm 1 mps 743 mmHg 84%
01:00 +20°C° 0.1 mm 1 mps 743 mmHg 86%
02:00 +20°C° 0.1 mm 1 mps 743 mmHg 89%
03:00 +20°C° 0.7 mm 1 mps 743 mmHg 91%
04:00 +19°C° 0.7 mm 1 mps 743 mmHg 93%
05:00 +19°C° 0.7 mm 1 mps 743 mmHg 95%
06:00 +19°C° 0.4 mm 1 mps 743 mmHg 95%
07:00 +20°C° 0.4 mm 1 mps 743 mmHg 95%
08:00 +20°C° 0.4 mm 1 mps 743 mmHg 95%
09:00 +19°C° 0 mm 2 mps 743 mmHg 90%
10:00 +20°C° 0 mm 2 mps 743 mmHg 85%
11:00 +21°C° 0 mm 3 mps 743 mmHg 80%
12:00 +23°C° 0 mm 4 mps 743 mmHg 71%
13:00 +25°C° 0 mm 4 mps 743 mmHg 62%
14:00 +27°C° 0 mm 5 mps 743 mmHg 52%
15:00 +26°C° 0 mm 5 mps 743 mmHg 53%
16:00 +26°C° 0 mm 5 mps 743 mmHg 54%
17:00 +26°C° 0 mm 5 mps 743 mmHg 54%
18:00 +23°C° 0 mm 4 mps 743 mmHg 61%
19:00 +22°C° 0 mm 3 mps 743 mmHg 67%
20:00 +21°C° 0 mm 1 mps 743 mmHg 73%
21:00 +20°C° 0 mm 1 mps 743 mmHg 75%
22:00 +18°C° 0 mm 2 mps 743 mmHg 77%
23:00 +17°C° 0 mm 2 mps 743 mmHg 79%

30 July, Friday

Time Temperature Precipitation Wind Pressure Humidity
00:00 +17°C° 0 mm 2 mps 743 mmHg 80%
01:00 +17°C° 0 mm 2 mps 743 mmHg 80%
02:00 +17°C° 0 mm 2 mps 743 mmHg 80%
03:00 +17°C° 0 mm 2 mps 743 mmHg 84%
04:00 +16°C° 0 mm 1 mps 743 mmHg 88%
05:00 +15°C° 0 mm 1 mps 743 mmHg 92%
06:00 +17°C° 0 mm 2 mps 743 mmHg 85%
07:00 +19°C° 0 mm 2 mps 743 mmHg 79%
08:00 +21°C° 0 mm 3 mps 743 mmHg 72%
09:00 +22°C° 0 mm 3 mps 743 mmHg 65%
10:00 +25°C° 0 mm 3 mps 742 mmHg 58%
11:00 +26°C° 0 mm 4 mps 742 mmHg 51%
12:00 +27°C° 0 mm 4 mps 742 mmHg 48%
13:00 +28°C° 0 mm 4 mps 741 mmHg 46%
14:00 +28°C° 0 mm 4 mps 741 mmHg 43%
15:00 +27°C° 0.1 mm 4 mps 741 mmHg 54%
16:00 +25°C° 0.1 mm 3 mps 740 mmHg 64%
17:00 +22°C° 0.1 mm 3 mps 740 mmHg 74%
18:00 +21°C° 0.6 mm 3 mps 739 mmHg 81%
19:00 +20°C° 0.6 mm 3 mps 739 mmHg 88%
20:00 +19°C° 0.6 mm 3 mps 738 mmHg 96%
21:00 +19°C° 0.6 mm 3 mps 738 mmHg 96%
22:00 +19°C° 0.6 mm 3 mps 738 mmHg 97%
23:00 +18°C° 0.6 mm 3 mps 738 mmHg 97%

31 July, Saturday

Time Temperature Precipitation Wind Pressure Humidity
00:00 +18°C° 0 mm 4 mps 739 mmHg 97%
01:00 +18°C° 0 mm 4 mps 739 mmHg 96%
02:00 +17°C° 0 mm 4 mps 739 mmHg 96%
03:00 +16°C° 0 mm 3 mps 739 mmHg 95%
04:00 +16°C° 0 mm 3 mps 739 mmHg 95%
05:00 +15°C° 0 mm 2 mps 740 mmHg 94%
06:00 +16°C° 0 mm 3 mps 740 mmHg 89%
07:00 +17°C° 0 mm 3 mps 740 mmHg 83%
08:00 +18°C° 0 mm 4 mps 740 mmHg 77%
09:00 +19°C° 0 mm 4 mps 740 mmHg 68%
10:00 +21°C° 0 mm 4 mps 740 mmHg 59%
11:00 +22°C° 0 mm 5 mps 740 mmHg 50%
12:00 +23°C° 0 mm 5 mps 740 mmHg 48%
13:00 +25°C° 0 mm 5 mps 740 mmHg 46%
14:00 +25°C° 0 mm 5 mps 740 mmHg 44%
15:00 +25°C° 0 mm 5 mps 740 mmHg 48%
16:00 +23°C° 0 mm 5 mps 740 mmHg 51%
17:00 +23°C° 0 mm 5 mps 740 mmHg 55%
18:00 +22°C° 0 mm 4 mps 740 mmHg 59%
19:00 +20°C° 0 mm 4 mps 740 mmHg 63%
20:00 +19°C° 0 mm 3 mps 740 mmHg 68%
21:00 +18°C° 0 mm 3 mps 740 mmHg 72%
22:00 +17°C° 0 mm 3 mps 740 mmHg 76%
23:00 +16°C° 0 mm 3 mps 740 mmHg 80%
Show more

We Need Your Consent

Meteoprog and our Service Providers may store and access personal data such as cookies, device identifiers or other similar technologies on your device and process such data to personalise content and ads, as well as provide social media features and to analyse the traffic.

  • Store and/or access information on your device

    Cookies, device identifiers or other information can be stored or accessed on your device for the purposes indicated above.

  • Personalised ads and content, ad and content measurement, audience insights, and products development

    Ads and content can be personalised based on a profile. More data can be added to better personalise ads and content. Ad and content performance can be measured. Insights about the audience who saw the ads and content can be derived. Such data can be used to develop or improve user’s experience, systems and software.

By clicking ‘I Agree’ you will allow the use of indicated cookies, device identifiers, web beacons or other similar technologies. Your settings can be changed in the browser on your device.

For certain purposes, legitimate interests may be relied on, rather than consent. You can read more about this in our Privacy and Cookie Policy.